CAPE
1394 1161 2056 2194 2540 1473 1155 1369 1408 1437 1700 1872 1773 1860 2222 2194 2154 2146 2130 2066 1960 1751 1987 1872 1697 1496 1851 1585 1922 1782 1736 1741 1579 1518 1463 1460 1366 1259 1320 1252 1040 854 628 725 598 607 646 726 790 897 1123 1724 1404 1743 1491 1278 1281 1081 1044 986 880 707
1786 1927 1077 1004 969 1209 739 1238 1475 1682 2001 1480 1332 1571 2122 1808 1747 1712 2226 2042 2283 2054 1910 1764 1750 1416 1876 1533 1786 1705 1750 1643 1591 1592 1508 1369 1303 1365 1376 1354 1108 877 458 644 620 636 401 586 498 1036 1280 1704 1821 1523 1275 1281 1207 1015 1019 1012 743 695
1202 1089 1159 1098 942 1016 1326 1022 1320 1339 1179 1345 1568 1658 1566 1568 1476 1573 1306 2058 2154 1987 1780 1838 1815 1256 1755 1190 1847 1668 1696 1650 1569 1592 1491 1493 1353 1395 1442 1476 1098 982 750 195 1170 425 423 562 659 586 1363 1808 1675 1274 1233 1185 1078 1047 1034 889 891 1004
1050 1313 1477 2088 1034 1619 1055 1519 1163 1047 1008 1214 2092 1361 1390 1229 1824 2067 2230 2314 2122 1865 1901 2191 1549 1467 1504 1158 1822 1777 1588 1616 1632 1618 1652 1651 1644 1598 1449 1330 1247 662 1184 921 344 250 326 433 666 1057 1311 1366 1396 1361 1210 1078 1010 1059 1017 726 753 1061
1390 1279 1434 1564 2097 1581 1156 1121 1066 970 1647 1511 1353 1333 1493 2078 2198 2255 2151 2178 1755 1966 1850 1833 1844 1453 1429 1505 933 1115 1130 947 580 652 1658 860 580 996 1389 1359 610 985 679 367 286 341 377 453 726 913 1132 1391 1451 1406 1241 1004 1136 1151 1087 1004 761 1150
1908 1807 1573 1233 1912 1772 2088 1850 1956 1880 1422 903 1744 1680 2044 2181 2282 2280 2202 2095 2036 2028 1858 2021 1909 1698 1636 1653 1575 1565 1363 1316 1138 651 437 657 864 742 556 897 686 511 414 412 307 314 390 438 662 827 888 1784 1735 1494 1240 1142 1163 1107 1233 1101 712 1144
1540 1823 1810 1822 1895 1206 1220 1213 1270 1342 1494 1093 1249 1388 1837 2269 2143 2163 2186 2108 2156 1919 1676 1906 1762 1709 1560 1608 1652 1679 1360 930 911 680 515 1000 1103 536 603 940 794 529 388 335 301 272 284 474 545 559 752 1354 1649 1471 1320 1106 1243 1264 1172 1154 912 1168
1313 1789 1795 1753 1254 1413 1481 1158 1248 1281 1286 1273 1118 1426 1300 1964 2070 1994 2119 2216 2165 1815 1610 1530 1579 1747 1652 1668 1768 1719 1409 1062 926 923 791 1047 1353 951 564 538 513 364 316 362 338 290 254 360 548 652 592 709 1335 1336 1463 1322 1365 1358 1198 1184 826 1287
1277 1592 1965 1927 1838 1730 1049 1051 1153 1378 1248 1148 1273 1008 1294 1944 2066 2168 2395 2136 2017 1894 1614 1633 1340 1579 1753 2167 2145 2026 1774 1449 1186 992 1070 1285 1418 1455 1141 560 422 358 448 362 411 388 363 378 513 680 734 750 847 1230 1510 1601 1724 1367 1283 1150 1155 1066
1506 1378 1591 1549 1320 1319 1747 1042 1149 1206 1044 1173 1092 1413 1632 2019 2194 2248 2142 1858 1918 1842 1814 1410 1278 1218 1891 2153 2224 2260 1905 1823 1584 1394 1105 1315 1586 1557 1367 1008 606 486 418 486 502 367 358 344 399 563 724 778 836 747 1434 1453 1507 1169 1302 1140 1052 888
1455 1586 1528 1168 1027 1123 1386 1377 964 1052 1015 1052 1826 2181 2250 2162 2156 2142 2130 1975 1436 1283 1091 880 937 991 1240 1499 1763 1303 1334 1441 1794 1262 1118 1638 1470 1359 1475 1113 845 644 588 649 581 366 297 319 384 462 548 538 676 744 954 1256 1270 1350 1261 1354 1196 1316
1532 1626 1013 1099 1410 1154 1217 1054 1175 1278 1814 1878 2416 2483 2167 2221 2310 2047 1312 1260 1248 1116 819 662 615 748 796 1514 994 808 907 1024 998 790 1013 810 550 963 1444 979 680 841 973 1041 624 468 401 418 532 507 554 499 621 634 698 905 804 1363 1097 1484 1390 1374
1358 1720 1332 1677 1967 1475 1188 1673 1984 1914 2152 2462 2465 2351 2215 2102 2215 1317 1274 1143 929 680 708 752 748 729 736 837 1429 1543 1271 1123 1012 963 878 832 745 838 1259 1207 904 956 1252 1203 888 616 405 494 661 681 611 667 707 559 602 679 781 1161 1492 1407 1152 1582
1364 1404 1671 1794 1834 2037 2131 1812 1669 1962 2264 2397 2369 2266 2025 1730 1832 1277 1007 991 849 697 580 500 517 526 672 899 1365 1547 1603 1611 1065 753 748 960 974 779 1090 1107 1009 957 970 1276 1284 1081 632 619 519 722 832 663 815 788 643 555 913 986 1101 1064 1375 1721
1822 1684 1895 1526 1886 2043 1709 1707 1844 2017 2221 2349 2278 2117 2000 1551 1738 1678 1060 1068 851 737 792 750 470 421 692 949 1227 1461 1608 1513 875 774 1398 1526 1022 710 1154 1491 1152 1014 897 1509 1572 1377 1230 1135 750 723 791 672 644 643 655 724 704 666 562 793 1565 1566
2062 1732 1738 2078 2143 1730 1886 2202 2488 2085 2730 2472 2267 2108 1989 1577 1482 1373 1531 1108 915 869 769 768 715 699 796 935 1227 1706 1689 1599 1475 1226 1400 913 1092 1573 1504 1583 1478 1332 1248 1444 1288 1282 1434 1647 1565 1590 1143 1009 857 599 841 1076 1082 796 778 989 766 1476
2000 1763 2034 2336 2023 2163 2222 2425 2436 2210 1910 2103 1830 1771 1738 1679 1596 1340 1494 1685 1499 1317 1225 926 942 631 735 968 1124 1466 1596 1484 1329 1258 1510 1376 1123 1093 1451 1435 1561 1614 1521 1473 1311 1272 1489 1512 1526 1428 1764 2055 1882 1411 1546 1722 1510 1533 1470 932 1057 1142
2065 2236 2818 2299 2210 2284 2289 2395 2222 2052 2171 1847 1738 1765 1743 1499 1397 1347 1337 1254 1564 1597 1329 1314 1244 1128 1230 1220 1291 1353 1118 1265 1398 1506 1508 1514 1473 1696 1690 1177 1877 1834 1494 1727 1550 1334 1367 1462 1367 1484 1561 1672 1478 1411 1442 1704 1529 1301 1193 803 1183 1279
2142 2821 2717 2424 2274 2223 2240 2128 2101 1955 1990 1822 1693 1602 1344 1408 1536 1287 1353 1408 1438 1531 1235 1358 1525 1519 1433 1270 1470 1291 1026 1034 1321 1451 1491 1541 1470 1770 1758 2040 1851 1915 2115 1593 1747 1612 1577 1515 1541 1456 1479 1371 1318 1426 1369 1382 1208 1358 1189 1433 1418 1112
2302 2845 2617 2296 2099 2220 2179 2123 2014 1967 1781 1638 1518 1317 1311 1314 1300 1254 1399 1355 1246 1492 1537 1486 1344 1501 1444 1612 1582 1297 1035 1150 1189 979 1196 1336 1405 1483 1504 1538 2009 1818 1998 1854 1698 1747 1778 1551 1559 1478 1265 1288 1294 1457 1479 1302 1350 1341 1125 953 1533 1404
2504 2627 2426 2168 2297 2337 2290 2122 1884 1848 1623 1445 1275 1449 1346 1208 1012 1114 1228 895 1175 1130 1338 1476 1596 1788 1742 1568 1725 1605 1324 1359 1452 1216 1135 964 1532 1516 1153 1229 1663 1642 1628 1705 1607 1723 1715 1655 1527 1358 1305 1340 1367 1190 912 898 1081 1118 1086 1089 1276 1308
2438 2544 2637 2605 2472 2279 2046 1865 1754 1498 1453 1140 1108 1024 985 1150 1268 1116 1201 1160 1076 1134 1296 1262 1226 1853 1977 1861 1773 1616 1595 1435 1341 1497 1566 1406 1562 1461 1497 1494 1506 1566 1520 1542 1752 1401 1564 1631 1409 1281 1214 1026 1050 1020 969 1044 684 563 658 654 772 785
2579 2669 2742 2621 2505 2092 1872 1884 1682 1432 1258 1098 1103 1050 925 1067 1186 1060 1252 982 1110 1171 1045 959 1067 1445 1809 1601 1744 1792 1750 1684 1623 1582 1521 1471 1533 1452 1507 1504 1506 1534 1557 1452 1098 1339 1653 1015 1131 1295 1264 954 535 711 962 1042 770 573 562 792 863 796
2741 2742 2725 2510 2102 1918 1854 2134 2047 1849 1708 1174 1340 1624 1424 1280 963 827 864 963 975 1160 974 869 740 711 814 1331 1848 1865 1967 1900 1710 1617 1601 1529 1403 1343 1341 1450 1346 1281 1508 1161 1029 976 1010 1583 1446 1426 1313 515 841 644 208 744 914 482 608 736 783 670
2837 2761 2533 2345 2046 1990 2001 2100 2246 2154 1913 1687 1410 1214 1082 914 777 379 165 483 591 999 824 727 706 686 548 766 795 1054 1226 1313 1607 1804 1743 1680 1500 1321 1255 1225 1307 1293 1279 1314 1212 860 807 1145 1556 1548 1542 947 898 582 269 829 806 709 855 718 702 648
2771 2581 2371 2362 2111 2040 2142 2029 1681 1391 1292 1301 1315 1266 1092 919 701 503 92 2 78 727 754 724 552 456 501 534 729 704 845 692 940 1040 1189 1502 1472 1288 1314 1176 1224 1155 671 1421 1430 1085 914 821 1068 1496 1354 1725 1312 520 591 753 726 533 759 673 300 100
2974 2640 2605 2383 2197 2308 2194 1993 1811 1510 1392 1214 1128 1179 1058 841 656 228 61 109 102 586 655 672 583 458 470 559 626 744 953 787 598 829 790 934 1048 1301 1025 1186 1180 1142 1102 911 1356 1349 719 961 1104 1151 1077 1285 1453 935 996 597 920 484 530 26 12 22
2793 2820 2746 2606 2379 2376 2238 2050 1848 1600 1276 1169 1168 1246 1184 957 574 217 87 50 142 268 574 473 470 412 359 345 459 466 637 826 638 504 654 563 743 806 893 1248 1315 1271 1068 1037 1001 805 1001 1230 1205 1201 1172 1275 763 912 987 717 937 578 406 90 14 4
2860 2939 2711 2710 2594 2506 2220 2154 1925 1603 1430 1255 1134 1003 734 461 385 211 154 200 225 197 430 616 455 462 365 249 236 275 481 592 679 636 546 602 895 1254 1588 1625 1517 1289 1130 1070 981 730 590 868 1061 1298 1254 1269 1087 883 833 847 954 808 343 9 5 8
2848 2797 2703 2630 2659 2504 2357 2128 1752 1606 1501 1279 998 738 550 454 389 283 214 246 208 227 216 226 271 435 290 143 183 158 204 576 640 454 238 704 884 1055 1393 1506 1626 1553 1354 1190 1140 1137 1046 921 1055 1497 1272 1235 1041 960 917 840 807 784 457 268 21 0
2662 2528 2465 2565 2537 2720 2410 2105 1685 1778 1481 1504 1170 856 606 454 291 180 74 97 127 82 195 106 126 253 295 141 109 72 201 580 704 516 233 158 243 211 596 774 994 1333 1564 1556 1343 1325 1183 995 982 809 923 885 989 908 994 889 808 730 641 430 60 0
2182 2278 2208 2046 2561 2518 2284 2202 2105 1828 1488 1558 1414 994 659 427 240 121 67 79 26 20 29 22 99 79 90 77 6 23 187 267 359 400 177 60 28 137 183 342 633 764 1010 1265 1434 1378 1410 1266 1130 1107 1091 978 974 960 904 923 792 575 384 244 65 24
1681 2082 2251 2368 2450 2330 2215 2043 1970 1687 1611 1527 1296 980 704 380 225 96 28 5 2 1 0 0 47 29 34 24 0 1 69 45 116 192 103 22 62 53 23 31 184 486 651 776 871 1164 1309 1434 1413 1166 1109 470 219 444 319 238 272 222 90 66 38 14
1154 1223 1725 2007 1944 1835 1763 1751 1721 1594 1587 1451 1381 1054 656 332 172 67 39 4 5 0 0 0 51 39 0 0 0 48 253 220 197 210 214 194 81 16 17 6 34 79 236 372 734 1042 1177 928 563 177 107 95 57 55 45 5 5 15 14 6 0 0
381 638 894 1236 1255 1179 1253 1543 1515 1462 1508 1306 1211 912 582 295 262 162 71 4 0 0 0 0 0 0 0 0 5 88 65 53 52 67 83 64 7 5 4 0 5 11 16 15 40 63 160 140 109 28 18 1 0 0 0 0 0 0 0 0 0 0
619 728 558 817 814 1232 1274 1428 1482 1684 1595 1335 902 701 461 170 164 142 78 28 0 0 0 0 0 0 0 0 0 0 0 0 0 0 1 1 0 0 1 0 0 0 0 0 4 7 7 15 20 2 0 0 0 0 0 0 0 0 0 0 0 0
229 215 328 601 889 1220 1749 1643 1524 1468 1496 1424 1139 776 638 604 435 353 103 0 0 0 0 0 0 0 0 0 0 0 0 0 0 0 0 0 0 0 0 0 0 0 0 0 0 0 0 0 0 0 0 0 0 0 0 0 0 0 0 0 0 0
Wind_Speed
33 28 32 28 23 23 24 27 25 27 30 32 32 32 30 27 24 25 24 25 24 26 27 28 27 29 30 28 30 29 28 28 26 26 25 25 25 25 25 26 26 26 24 24 25 26 28 27 26 24 23 18 19 16 20 21 19 19 19 21 18 26
29 29 28 22 17 19 21 21 21 21 22 25 25 25 23 21 20 21 23 23 23 24 24 25 27 27 27 29 29 29 28 28 26 26 25 24 24 24 24 25 25 24 23 20 17 20 24 27 26 24 21 22 18 21 23 20 20 21 21 21 24 27
27 23 19 16 19 21 21 18 20 20 18 17 20 20 19 19 19 20 20 23 23 23 22 24 24 23 26 28 29 29 28 27 26 26 25 24 23 23 24 25 25 23 20 15 15 23 22 24 26 25 23 21 22 23 25 23 22 23 23 24 28 30
23 22 15 15 18 17 18 19 18 16 18 15 20 20 20 20 20 20 22 23 21 21 22 23 24 27 27 26 28 28 27 26 25 24 25 22 24 23 25 25 24 21 15 15 21 20 23 24 26 25 24 24 25 26 25 24 23 25 27 22 30 30
20 19 17 15 16 16 19 18 17 17 18 21 22 21 20 20 20 22 22 20 20 20 21 23 23 23 22 24 25 24 22 22 20 21 19 18 18 21 19 20 21 17 19 19 18 22 22 26 26 24 26 25 26 26 25 26 26 26 26 28 30 30
19 16 16 16 16 18 18 17 17 20 21 19 20 21 21 20 20 21 20 19 20 20 21 23 23 22 23 22 22 21 20 21 20 20 17 17 18 18 19 18 19 19 19 19 18 19 22 24 26 25 26 25 26 26 25 27 28 27 28 28 29 30
18 14 14 15 17 17 13 13 13 15 19 20 15 13 17 20 20 19 18 19 19 19 20 23 23 23 23 21 20 20 20 20 19 18 17 16 17 17 17 19 19 19 18 17 17 18 20 23 24 25 24 24 26 26 26 28 28 27 29 29 30 29
18 14 13 14 17 14 14 14 10 9 13 17 16 11 10 18 18 17 18 18 18 19 20 22 23 23 22 18 19 18 19 19 18 18 18 17 18 18 18 18 17 17 16 17 17 17 19 21 22 22 24 24 25 25 26 27 28 28 28 28 28 28
16 16 14 14 17 14 13 15 12 12 9 12 15 14 9 15 15 15 16 17 18 19 18 18 22 20 20 17 18 18 18 18 17 16 18 16 17 18 18 17 17 16 16 16 18 17 18 19 20 22 22 23 24 24 25 26 26 27 27 27 27 29
15 14 15 17 17 11 10 16 18 16 7 9 13 16 16 14 13 14 15 16 17 18 18 16 20 16 19 17 18 18 16 15 15 16 15 16 17 17 18 17 18 17 17 16 17 17 17 19 20 21 21 22 23 22 23 23 25 25 27 26 27 27
14 14 13 14 16 11 10 12 15 12 14 11 15 15 14 12 12 13 15 16 19 17 18 17 17 16 14 13 17 17 12 12 14 17 12 15 18 18 16 17 17 18 18 16 17 17 15 18 19 20 19 20 21 21 21 23 23 24 24 24 25 24
17 13 10 12 13 17 12 6 10 10 13 13 12 10 11 11 11 14 18 15 17 19 21 19 15 13 14 15 14 13 11 12 13 13 15 18 16 12 12 15 17 17 18 16 17 16 16 16 18 19 19 19 20 20 21 22 22 22 22 23 24 25
17 13 8 10 8 10 10 10 11 11 13 12 10 11 11 11 12 19 18 16 19 21 21 17 12 10 11 11 10 10 11 11 10 12 14 14 11 12 13 13 16 17 17 16 15 17 17 17 16 18 17 20 19 20 22 21 22 22 23 24 25 26
16 10 5 8 8 7 9 11 11 12 13 12 11 10 11 12 14 18 17 14 17 21 16 13 9 12 10 9 8 8 7 10 10 9 11 13 17 10 11 11 16 16 17 15 15 16 17 16 16 16 17 19 19 21 21 22 23 22 23 25 25 26
11 9 9 10 10 11 12 12 13 14 15 13 12 12 13 13 13 14 16 13 13 19 19 16 11 12 11 8 8 8 7 9 9 6 12 14 13 16 13 16 15 16 17 16 16 16 17 18 16 16 19 19 21 21 20 22 22 20 22 24 26 26
8 10 10 12 13 14 16 15 15 15 16 15 14 14 15 15 14 14 15 15 12 14 15 13 12 12 11 8 7 8 8 8 9 9 12 14 10 14 17 15 17 16 17 16 17 17 17 18 17 18 19 19 19 20 20 21 21 20 22 22 25 26
9 10 11 12 13 15 15 15 14 15 16 16 15 16 16 16 15 14 13 15 15 12 9 9 8 8 9 8 7 7 9 9 10 11 12 15 16 11 15 19 16 17 16 16 16 19 18 17 17 17 18 20 21 21 20 21 20 21 23 27 29 27
10 9 10 11 12 13 14 14 15 16 18 17 16 15 16 16 16 14 13 15 16 14 10 10 10 10 9 8 9 10 11 10 11 11 14 15 16 15 17 16 18 16 15 15 16 17 18 17 17 18 19 20 20 20 20 20 21 21 24 25 21 20
8 9 10 12 12 14 15 16 15 15 16 17 16 16 16 16 16 15 15 16 16 14 12 12 11 11 9 9 10 11 11 11 11 11 13 14 14 16 16 17 17 16 15 14 16 18 18 18 18 19 19 19 18 20 19 19 20 21 23 22 21 21
8 11 11 11 11 11 11 11 12 13 14 15 15 15 15 16 15 16 17 16 16 15 15 13 13 12 11 11 11 12 11 10 11 12 11 11 13 14 16 15 14 14 14 15 16 19 18 18 20 20 19 18 18 18 18 18 18 18 21 18 18 20
12 12 11 11 11 11 11 11 11 12 14 14 14 15 15 15 16 18 16 17 17 18 17 16 15 15 14 13 12 12 11 10 13 13 13 10 13 14 15 13 15 14 13 14 17 18 18 17 19 19 18 17 17 17 18 18 18 18 19 19 20 21
13 12 12 13 14 13 13 12 13 14 15 15 15 14 16 16 17 18 18 18 17 18 19 18 17 17 16 15 14 13 11 12 13 13 14 13 14 16 16 15 15 15 13 14 17 18 19 17 17 17 19 19 18 18 19 18 18 19 19 20 20 20
14 12 14 16 16 16 16 16 14 17 16 17 17 16 17 18 18 19 18 18 19 18 18 18 18 18 17 16 15 14 13 13 13 14 14 14 16 17 16 16 16 15 16 16 17 19 18 16 15 18 16 17 18 17 20 19 19 19 19 19 19 20
15 14 16 18 17 19 19 19 18 19 19 18 19 19 19 18 19 19 20 18 19 18 17 17 17 14 13 14 14 15 15 14 14 14 14 15 17 17 18 17 17 15 15 17 19 19 18 19 15 19 16 15 17 19 17 16 18 19 18 19 18 20
16 17 19 21 20 21 21 20 21 22 22 23 21 19 18 18 18 18 19 19 19 17 17 17 16 14 13 12 12 13 15 15 15 15 15 16 17 18 19 18 18 16 15 16 19 19 19 18 15 14 15 16 18 17 17 18 20 20 17 19 19 20
17 19 21 22 21 21 19 21 21 21 21 20 20 18 18 18 16 16 nan nan nan 17 17 17 16 16 16 15 15 15 15 15 15 15 16 17 18 19 20 19 17 16 16 17 19 19 20 19 16 15 13 17 15 18 16 21 17 20 20 20 19 nan
17 20 21 21 21 19 21 21 20 20 21 20 20 19 18 18 16 16 nan 16 18 17 17 18 18 19 20 21 21 20 19 17 18 16 16 15 17 18 18 19 20 17 19 21 18 18 20 20 19 16 15 15 16 18 16 21 18 23 23 nan nan nan
17 19 20 21 21 19 21 20 20 20 21 21 20 20 19 18 18 17 nan nan 16 17 17 19 19 21 23 25 25 23 22 21 20 20 17 17 17 18 19 21 21 20 20 20 21 18 19 20 18 20 18 18 17 17 17 17 16 20 21 nan nan nan
18 20 19 20 20 20 20 19 19 20 21 21 21 20 19 20 20 20 20 18 17 18 19 19 19 22 23 25 26 25 23 21 22 23 22 20 20 22 23 22 22 21 22 20 19 20 20 19 18 21 20 20 19 20 21 19 17 16 22 nan nan nan
21 22 21 21 20 20 20 18 17 19 21 22 21 21 21 22 23 23 24 23 22 21 22 21 21 22 24 26 26 26 25 24 23 24 25 25 22 21 21 21 22 22 23 24 22 20 20 21 20 22 18 21 20 22 22 21 19 18 21 20 nan nan
24 24 23 21 19 20 20 18 18 20 21 24 25 25 26 26 26 26 nan nan 26 nan 26 26 24 25 25 26 27 nan 26 26 25 25 26 25 23 22 20 21 22 23 24 24 24 24 23 23 22 22 20 21 21 21 22 21 20 19 19 21 nan nan
28 27 23 21 20 21 21 21 22 22 23 26 28 26 28 28 28 29 nan nan nan nan nan nan nan nan nan nan nan nan 26 26 26 25 25 nan nan 23 22 21 22 22 23 25 26 26 26 26 24 24 21 21 20 21 20 19 20 19 18 20 nan nan
29 26 24 22 22 24 25 25 25 24 25 27 28 28 29 29 28 nan nan nan nan nan nan nan nan nan nan nan nan nan nan nan 26 25 24 nan nan nan nan nan 23 24 24 25 26 27 27 27 26 26 23 24 22 23 23 22 21 20 nan nan nan nan
35 29 25 26 28 29 29 27 26 25 26 28 28 27 28 28 27 nan nan nan nan nan nan nan nan nan nan nan nan nan 25 26 26 25 24 23 nan nan nan nan nan nan 26 27 28 29 30 30 29 28 26 nan nan nan nan nan nan nan nan nan nan nan
30 31 29 28 29 29 28 26 25 26 27 27 26 25 24 25 26 28 nan nan nan nan nan nan nan nan nan nan nan nan nan nan nan nan nan nan nan nan nan nan nan nan nan nan nan nan 31 31 30 nan nan nan nan nan nan nan nan nan nan nan nan nan
18 13 11 16 24 25 25 25 27 28 25 24 24 23 23 24 27 30 nan nan nan nan nan nan nan nan nan nan nan nan nan nan nan nan nan nan nan nan nan nan nan nan nan nan nan nan nan nan nan nan nan nan nan nan nan nan nan nan nan nan nan nan
17 18 13 12 18 20 23 26 26 25 24 23 25 24 25 26 27 28 27 nan nan nan nan nan nan nan nan nan nan nan nan nan nan nan nan nan nan nan nan nan nan nan nan nan nan nan nan nan nan nan nan nan nan nan nan nan nan nan nan nan nan nan
Wind_Direction
313 314 309 303 287 288 285 281 277 280 279 278 276 269 262 262 264 268 271 276 285 285 283 282 287 284 290 288 284 289 289 289 289 287 285 282 279 277 275 273 270 266 260 251 246 242 240 239 239 233 238 253 263 258 253 252 256 255 256 264 260 259
307 304 293 289 291 288 283 271 276 279 275 269 268 270 265 260 264 265 272 284 285 283 283 283 281 286 288 291 291 289 289 289 287 286 283 283 281 280 279 274 271 266 259 252 244 243 248 248 246 242 244 256 257 255 256 255 251 252 253 255 258 262
300 288 292 299 295 285 276 276 276 276 263 263 268 271 265 261 260 267 279 285 284 283 285 283 285 289 285 282 287 289 288 288 287 286 287 285 286 284 282 276 270 266 262 254 244 240 243 251 252 255 255 256 256 255 257 254 251 250 249 244 256 261
297 284 265 268 267 274 280 277 278 270 264 267 272 266 265 262 263 271 279 282 281 284 286 283 281 285 291 289 286 290 290 288 289 291 293 294 292 291 288 284 280 279 278 262 245 244 243 245 251 252 252 253 254 255 258 255 252 250 249 247 252 257
285 281 291 279 276 273 279 277 272 264 268 271 272 266 265 263 264 275 282 281 285 287 288 288 290 290 289 287 290 290 291 291 293 291 304 290 292 288 293 286 281 280 260 254 248 239 236 244 246 250 250 252 254 255 254 252 248 250 249 248 253 255
278 280 273 278 270 263 259 254 259 254 257 259 258 267 258 260 268 275 279 280 282 287 288 286 289 287 282 285 287 288 290 289 291 288 292 286 283 282 282 282 276 269 263 256 249 242 240 241 247 247 252 252 256 255 252 253 251 247 248 251 255 254
285 279 276 275 268 266 262 253 236 239 249 257 253 254 257 260 270 273 277 280 283 286 286 286 288 287 285 287 287 287 287 286 287 285 281 278 276 273 269 271 271 268 262 259 254 245 243 246 244 250 251 254 254 253 250 250 251 250 250 251 257 257
286 286 278 275 271 278 269 265 258 246 249 251 259 262 264 267 271 276 280 282 283 284 286 287 287 291 287 286 287 284 283 281 280 280 278 273 275 271 270 270 273 275 272 263 256 247 241 243 250 250 251 253 253 253 253 252 251 251 252 254 257 260
288 292 282 273 267 261 270 265 269 277 274 258 270 278 293 278 277 282 285 285 286 284 281 274 275 273 287 285 279 276 273 274 276 276 275 269 268 270 271 271 269 268 266 259 251 246 242 242 243 247 249 252 254 253 256 255 256 256 254 254 256 261
284 286 284 275 259 241 249 269 278 291 284 296 294 298 303 294 290 289 287 282 284 279 266 271 285 293 289 284 270 267 266 266 267 272 274 269 268 270 268 267 268 265 262 257 255 248 242 244 243 244 246 250 253 254 254 256 256 257 257 256 256 261
284 273 280 284 281 276 274 265 272 290 322 322 290 284 288 294 291 282 277 273 259 262 279 274 264 269 266 266 273 260 254 258 261 246 243 261 255 246 255 267 266 265 260 258 258 256 249 247 245 246 247 249 250 251 250 250 255 255 258 258 259 262
279 271 281 279 280 284 277 294 310 323 296 289 287 292 293 298 295 278 258 259 270 270 264 271 278 287 285 269 265 297 299 283 271 277 261 255 258 271 261 262 265 264 258 255 260 258 249 250 249 246 244 245 247 245 247 250 253 257 258 258 259 258
283 265 268 277 280 289 308 310 297 297 295 292 299 290 291 295 283 269 275 269 261 263 269 274 295 301 280 275 284 289 291 290 292 282 278 271 279 256 258 260 269 265 262 255 252 256 251 238 248 249 245 247 242 243 244 248 249 252 257 258 259 260
284 271 284 281 266 272 285 288 295 296 296 302 288 281 280 283 279 281 285 278 273 272 279 307 315 295 305 305 298 288 284 278 273 282 290 290 270 263 262 275 274 271 263 258 256 254 252 249 244 244 244 245 242 240 240 245 248 250 251 254 255 258
297 303 301 287 277 274 279 276 285 292 298 296 288 281 276 278 279 277 278 280 284 293 320 338 322 309 324 334 319 300 294 288 291 285 265 265 281 296 299 282 276 273 266 258 254 253 253 253 250 247 247 239 241 243 239 241 247 248 252 251 254 255
303 296 294 280 273 271 272 272 274 291 296 294 288 282 278 276 271 277 277 284 290 297 320 331 326 323 322 325 306 292 290 278 267 250 260 267 261 262 272 276 271 259 264 260 260 259 254 255 255 251 248 246 246 243 242 242 243 243 248 253 256 256
302 297 286 276 271 267 264 268 275 282 285 280 273 266 266 269 278 269 274 279 288 293 302 308 307 300 303 303 297 287 283 271 274 280 263 258 268 269 270 275 274 266 263 261 262 263 257 260 260 260 257 251 247 249 248 246 244 242 246 240 233 242
276 284 280 279 272 262 256 259 268 275 271 267 263 265 268 267 269 271 270 271 278 285 288 288 290 292 286 284 281 275 267 267 267 268 268 268 264 261 269 271 278 275 268 263 262 266 269 267 268 269 267 261 256 255 254 250 244 244 248 252 259 260
257 274 282 279 277 265 262 258 262 274 278 275 270 265 266 271 272 276 274 276 278 279 282 280 283 281 273 270 272 278 281 274 268 267 271 271 271 269 267 270 276 277 264 264 262 260 265 273 274 271 270 269 265 258 255 251 246 248 250 257 260 264
246 283 277 278 286 280 278 284 285 283 282 274 271 270 271 270 278 278 278 280 284 285 281 278 275 275 274 266 267 272 274 271 265 258 265 268 279 278 271 274 276 276 272 266 264 268 275 280 277 275 274 273 271 268 260 256 257 257 266 267 265 262
277 275 279 287 287 285 289 284 287 291 281 279 274 273 272 272 274 272 274 281 285 287 284 278 275 273 271 266 263 266 270 266 264 274 277 277 280 279 286 284 277 273 276 271 270 269 275 280 282 282 280 283 280 274 271 271 266 264 262 264 264 265
268 276 281 288 284 287 284 282 288 284 278 277 276 276 273 274 273 276 279 278 281 284 283 280 278 277 273 268 263 260 257 259 263 272 273 279 278 280 284 284 279 276 270 271 270 271 276 283 289 288 292 289 287 283 277 275 272 265 264 266 267 267
275 283 285 286 284 284 280 276 275 274 277 273 264 262 266 266 271 273 273 275 276 278 281 280 279 281 282 282 279 272 267 264 267 268 275 277 278 282 286 288 288 279 276 270 269 272 277 285 284 288 285 287 292 297 286 282 273 272 273 270 269 271
278 285 282 284 282 278 274 271 268 271 267 268 270 268 268 270 268 271 273 272 272 275 274 275 274 277 279 284 289 284 278 272 266 265 271 277 279 283 286 286 286 282 276 276 275 274 276 276 268 286 288 287 285 281 280 290 281 278 280 280 279 274
278 280 278 279 278 274 275 276 270 270 268 267 272 275 277 276 275 274 274 273 271 271 274 273 272 270 271 277 283 283 275 269 268 269 267 270 275 278 282 284 285 286 284 273 272 274 274 272 273 268 258 279 279 286 286 289 285 277 278 282 277 272
274 276 276 281 279 276 276 275 276 278 278 277 278 282 284 285 288 290 nan nan nan 266 267 267 267 266 269 282 291 292 287 276 268 261 259 260 266 273 277 282 285 284 286 275 274 275 276 273 273 276 275 263 264 266 278 292 295 282 277 273 274 nan
278 275 275 278 279 274 273 274 279 280 279 280 282 282 280 282 283 285 nan 282 269 264 265 268 263 264 270 278 287 294 294 286 274 265 259 258 261 267 274 279 283 284 278 279 279 277 277 274 275 277 278 273 267 281 280 291 289 285 288 nan nan nan
274 273 274 274 277 274 273 276 281 280 281 284 287 286 287 282 279 281 nan nan 276 269 268 268 268 266 270 275 281 288 292 289 282 273 265 260 259 262 264 267 273 276 276 278 281 275 276 277 278 278 279 278 280 277 284 280 280 292 287 nan nan nan
268 270 273 277 276 275 273 279 281 279 284 283 286 287 285 284 283 281 283 281 274 270 269 266 268 272 272 273 278 282 285 287 284 277 270 262 258 256 257 263 270 273 277 278 282 284 287 283 280 278 283 283 283 283 284 284 282 277 286 nan nan nan
264 262 268 274 274 275 277 279 278 280 282 282 283 284 286 286 287 289 288 288 285 281 277 276 276 278 279 279 278 280 283 283 281 277 270 263 260 258 258 262 266 270 274 278 276 274 279 280 280 278 279 280 283 282 284 283 286 288 287 284 nan nan
261 259 268 273 275 274 275 275 273 278 282 283 286 286 288 290 290 292 nan nan 290 nan 283 280 281 284 284 284 282 nan 280 281 278 273 268 264 258 258 261 261 263 267 272 275 277 278 278 281 280 283 286 284 282 284 283 284 285 284 281 281 nan nan
256 260 267 273 272 269 268 269 268 275 278 280 285 285 289 291 294 295 nan nan nan nan nan nan nan nan nan nan nan nan 281 281 277 270 262 nan nan 260 260 262 265 267 268 272 274 278 279 280 281 282 283 276 274 274 272 273 275 277 278 277 nan nan
243 252 259 263 264 262 261 262 264 269 274 277 282 286 288 291 294 nan nan nan nan nan nan nan nan nan nan nan nan nan nan nan 277 269 259 nan nan nan nan nan 270 271 272 273 275 277 280 281 282 280 280 280 279 277 274 269 271 271 nan nan nan nan
209 211 233 243 248 251 252 258 266 271 276 278 281 287 290 293 296 nan nan nan nan nan nan nan nan nan nan nan nan nan 280 276 271 266 261 260 nan nan nan nan nan nan 275 274 275 277 277 279 278 277 276 nan nan nan nan nan nan nan nan nan nan nan
212 196 207 238 249 259 263 269 278 281 283 282 284 287 288 290 293 294 nan nan nan nan nan nan nan nan nan nan nan nan nan nan nan nan nan nan nan nan nan nan nan nan nan nan nan nan 278 278 276 nan nan nan nan nan nan nan nan nan nan nan nan nan
234 234 238 250 261 272 282 280 280 279 282 285 285 286 286 287 290 293 nan nan nan nan nan nan nan nan nan nan nan nan nan nan nan nan nan nan nan nan nan nan nan nan nan nan nan nan nan nan nan nan nan nan nan nan nan nan nan nan nan nan nan nan
235 238 255 280 279 269 260 266 276 285 287 285 287 288 286 290 294 299 300 nan nan nan nan nan nan nan nan nan nan nan nan nan nan nan nan nan nan nan nan nan nan nan nan nan nan nan nan nan nan nan nan nan nan nan nan nan nan nan nan nan nan nan